Date String (YYYY-MM-DD hh:mm:ss) UTC,Instrument flags,Ambient pressure (hPa),Sample flow (lpm),Bypass flow (lpm),Sample temperature (°C),Ambient temperature (°C),ASC tube jacket temperature (°C),LED temperature (°C),Box temperature (°C),Sample RH (%),Span deviation,Mass concentration (μg/m³),Mass concentration (μg/m³),Mass concentration (μg/m³)
DateTimeUTC,F1_M11,P_M11,Q1_M11,Q2_M11,T1_M11,T2_M11,T3_M11,T4_M11,T5_M11,U1_M11,ZSPAN_M11,X2_M11,X0_M11,X1_M11
2023-02-19 00:00:00,,0816.9,5.01,0.00,22.2,20.6,00.0,31.1,23.9,05.6,0000.0,0001.62,0005.18,0001.09
2023-02-19 00:01:00,,0816.9,4.99,0.00,22.2,20.5,00.0,31.1,23.8,05.8,0000.0,0001.62,0004.87,0001.09
2023-02-19 00:02:00,,0816.6,5.00,0.00,22.1,20.5,00.0,31.1,23.8,05.5,0000.0,0001.62,0004.88,0001.09
2023-02-19 00:03:00,,0816.5,5.00,0.00,22.1,20.5,00.0,31.1,23.8,05.5,0000.0,0001.60,0004.40,0001.09
2023-02-19 00:04:00,,0816.6,5.01,0.00,22.1,20.4,00.0,31.1,23.8,05.8,0000.0,0001.60,0003.70,0001.09
2023-02-19 00:05:00,,0816.9,5.00,0.00,22.1,20.4,00.0,31.1,23.8,05.6,0000.0,0001.62,0003.81,0001.08
2023-02-19 00:06:00,,0816.6,5.00,0.00,22.1,20.4,00.0,31.0,23.8,06.0,0000.0,0001.65,0003.94,0001.08
2023-02-19 00:07:00,,0816.5,5.00,0.00,22.1,20.4,00.0,31.0,23.7,06.2,0000.0,0001.68,0004.40,0001.08
2023-02-19 00:08:00,,0816.5,4.98,0.00,22.0,20.4,00.0,31.0,23.7,06.0,0000.0,0001.72,0004.32,0001.08
2023-02-19 00:09:00,,0816.4,5.00,0.00,22.0,20.4,00.0,31.0,23.7,05.4,0000.0,0001.70,0004.25,0001.06
2023-02-19 00:10:00,,0816.9,5.01,0.00,22.0,20.4,00.0,31.0,23.7,05.3,0000.0,0001.65,0004.11,0001.04
2023-02-19 00:11:00,,0816.6,5.02,0.00,22.0,20.4,00.0,31.0,23.7,05.0,0000.0,0001.64,0004.07,0001.03
2023-02-19 00:12:00,,0816.8,5.00,0.00,22.0,20.4,00.0,31.0,23.7,05.4,0000.0,0001.65,0004.11,0001.03
2023-02-19 00:13:00,,0816.9,5.01,0.00,22.0,20.4,00.0,30.9,23.7,05.8,0000.0,0001.64,0004.10,0001.01
2023-02-19 00:14:00,,0816.8,5.00,0.00,22.0,20.3,00.0,30.9,23.7,05.6,0000.0,0001.61,0004.07,0001.00
2023-02-19 00:15:00,,0816.8,5.02,0.00,22.0,20.3,00.0,30.9,23.6,05.5,0000.0,0001.56,0003.95,0000.99
2023-02-19 00:16:00,,0816.8,5.00,0.00,21.9,20.4,00.0,30.9,23.6,05.7,0000.0,0001.56,0003.82,0000.98
2023-02-19 00:17:00,,0816.9,5.00,0.00,22.0,21.2,00.0,30.8,23.9,05.5,0000.0,0001.52,0003.71,0000.98
2023-02-19 00:18:00,,0817.1,4.95,0.00,22.1,22.3,00.0,30.8,24.2,05.4,0000.0,0001.49,0003.27,0000.98
2023-02-19 00:19:00,,0817.1,5.00,0.00,22.3,22.9,00.0,30.8,24.4,05.2,0000.0,0001.46,0002.82,0000.98
2023-02-19 00:20:00,,0817.1,5.00,0.00,22.3,22.5,00.0,30.9,24.3,05.6,0000.0,0001.41,0002.61,0000.99
2023-02-19 00:21:00,,0817.1,5.00,0.00,22.3,22.0,00.0,31.0,24.2,06.0,0000.0,0001.41,0002.49,0001.00
2023-02-19 00:22:00,,0817.0,5.01,0.00,22.3,21.7,00.0,31.0,24.2,05.8,0000.0,0001.41,0002.45,0001.01
2023-02-19 00:23:00,,0816.9,4.98,0.00,22.3,21.4,00.0,31.1,24.1,05.8,0000.0,0001.45,0002.56,0001.02
2023-02-19 00:24:00,,0816.9,5.00,0.00,22.3,21.2,00.0,31.1,24.0,05.5,0000.0,0001.46,0002.60,0001.02
2023-02-19 00:25:00,,0817.1,4.99,0.00,22.3,21.1,00.0,31.1,24.0,05.1,0000.0,0001.49,0002.66,0001.04
2023-02-19 00:26:00,,0817.1,5.01,0.00,22.3,21.0,00.0,31.1,24.0,05.2,0000.0,0001.53,0002.79,0001.05
2023-02-19 00:27:00,,0817.1,5.00,0.00,22.3,20.9,00.0,31.1,24.0,05.3,0000.0,0001.50,0002.71,0001.05
2023-02-19 00:28:00,,0817.1,4.98,0.00,22.2,20.8,00.0,31.1,24.0,05.4,0000.0,0001.49,0002.59,0001.05
2023-02-19 00:29:00,,0817.0,5.00,0.00,22.2,20.7,00.0,31.1,24.0,05.6,0000.0,0001.51,0002.79,0001.06
2023-02-19 00:30:00,,0817.1,5.01,0.00,22.2,20.6,00.0,31.1,23.9,05.4,0000.0,0001.54,0002.93,0001.07
2023-02-19 00:31:00,,0817.1,4.98,0.00,22.2,20.6,00.0,31.1,23.9,05.8,0000.0,0001.59,0003.15,0001.09
2023-02-19 00:32:00,,0817.0,4.98,0.00,22.2,20.5,00.0,31.1,23.9,05.9,0000.0,0001.62,0003.27,0001.09
2023-02-19 00:33:00,,0817.1,4.98,0.00,22.2,20.5,00.0,31.1,23.8,05.5,0000.0,0001.62,0003.25,0001.10
2023-02-19 00:34:00,,0817.0,5.00,0.00,22.2,20.5,00.0,31.1,23.8,05.5,0000.0,0001.56,0003.11,0001.09
2023-02-19 00:35:00,,0817.1,5.00,0.00,22.1,20.5,00.0,31.1,23.8,05.3,0000.0,0001.56,0003.12,0001.09
2023-02-19 00:36:00,,0817.1,5.00,0.00,22.1,20.5,00.0,31.1,23.8,05.4,0000.0,0001.55,0003.09,0001.08
2023-02-19 00:37:00,,0816.9,4.99,0.00,22.1,20.4,00.0,31.1,23.8,06.0,0000.0,0001.57,0003.20,0001.08
2023-02-19 00:38:00,,0816.9,4.99,0.00,22.1,20.4,00.0,31.1,23.8,05.1,0000.0,0001.59,0003.28,0001.07
2023-02-19 00:39:00,,0817.0,5.00,0.00,22.1,20.4,00.0,31.0,23.8,05.2,0000.0,0001.63,0003.35,0001.08
2023-02-19 00:40:00,,0817.0,4.99,0.00,22.1,20.4,00.0,31.0,23.8,05.2,0000.0,0001.62,0003.15,0001.08
2023-02-19 00:41:00,,0817.1,5.00,0.00,22.0,20.3,00.0,31.0,23.7,05.7,0000.0,0001.57,0003.02,0001.07
2023-02-19 00:42:00,,0817.2,5.01,0.00,22.0,20.3,00.0,31.0,23.7,05.7,0000.0,0001.55,0002.89,0001.06
2023-02-19 00:43:00,,0817.1,5.00,0.00,22.0,20.2,00.0,31.0,23.7,05.3,0000.0,0001.55,0002.81,0001.06
2023-02-19 00:44:00,,0817.2,5.00,0.00,22.0,20.2,00.0,31.0,23.7,05.4,0000.0,0001.55,0002.84,0001.05
2023-02-19 00:45:00,,0817.2,5.00,0.00,22.0,20.3,00.0,31.0,23.7,05.0,0000.0,0001.57,0002.83,0001.05
2023-02-19 00:46:00,,0817.2,4.98,0.00,22.0,20.2,00.0,30.9,23.7,05.4,0000.0,0001.59,0002.82,0001.06
2023-02-19 00:47:00,,0817.2,5.01,0.00,22.0,20.2,00.0,30.9,23.7,05.8,0000.0,0001.58,0002.99,0001.06
2023-02-19 00:48:00,,0817.2,5.01,0.00,21.9,20.2,00.0,30.9,23.7,04.9,0000.0,0001.58,0002.95,0001.06
2023-02-19 00:49:00,,0817.2,5.00,0.00,21.9,20.3,00.0,30.9,23.7,05.3,0000.0,0001.61,0003.04,0001.06
2023-02-19 00:50:00,,0817.2,5.00,0.00,21.9,20.3,00.0,30.9,23.6,05.4,0000.0,0001.62,0003.05,0001.07
2023-02-19 00:51:00,,0817.2,5.01,0.00,21.9,20.3,00.0,30.9,23.6,05.1,0000.0,0001.63,0003.10,0001.06
2023-02-19 00:52:00,,0817.1,4.98,0.00,21.9,20.3,00.0,30.9,23.6,05.4,0000.0,0001.64,0003.10,0001.06
2023-02-19 00:53:00,,0817.1,4.99,0.00,21.9,20.3,00.0,30.9,23.6,05.5,0000.0,0001.64,0003.23,0001.06
2023-02-19 00:54:00,,0817.1,5.01,0.00,21.9,20.2,00.0,30.9,23.6,05.1,0000.0,0001.62,0003.15,0001.05
2023-02-19 00:55:00,,0817.2,4.99,0.00,21.9,20.2,00.0,30.9,23.6,04.9,0000.0,0001.60,0003.11,0001.06
2023-02-19 00:56:00,,0817.2,4.99,0.00,21.9,20.3,00.0,30.8,23.6,05.0,0000.0,0001.57,0003.06,0001.05
2023-02-19 00:57:00,,0817.2,5.02,0.00,21.9,21.1,00.0,30.8,23.8,04.7,0000.0,0001.55,0003.03,0001.05
2023-02-19 00:58:00,,0817.3,4.98,0.00,22.1,22.3,00.0,30.7,24.1,05.4,0000.0,0001.55,0002.89,0001.05
2023-02-19 00:59:00,,0817.3,4.96,0.00,22.2,22.9,00.0,30.8,24.3,05.5,0000.0,0001.53,0002.82,0001.05
